Погода в Комрате

Погода в Комрате : погода сейчас, прогноз погоды и архив. Всё, что Вы хотите узнать о погоде в Комрате!

Поиск расширенной информации на нашем сайте:

Другие новости

Новости СМИ2

Главная страница сайта

Новости сайта

03.07.2017

Напоминаем, что на нашем специализированном сайте Метеоцентр.Азия вы можете получить высокодетализированные автоматические прогнозы погоды по пунктам России, СНГ и мира в авиационном формате (включающие направление и скорость ветра, видимость, явления погоды, количество и форму облачности, нижнюю и верхнюю границу облачности).


Погода в Комрате - сегодня

Время (UTC), дата Ветер
(°,м/с) 
Видим.   Явления Облачность Т
(°С)
Тd
(°С)
f(%) Тe
(°С)
Pmin
(гПа)
dP
(гПа)
Po
(мм)
O2
(г/м3)
Тmin Tmax R s Состояние
почвы
15 13.01.18 040 (СВ) 10 км    10/0 средняя 
[Ac und]
-1.7 -10 53 -5  1035.5  0.6  764  311           
18 13.01.18 020 (С) 10 км    10/10 360 м 
[Ac und]
-2.5 -6.7 73 -5  1035.9  0.3  764  311    +0.9  0.0     
21 13.01.18 030 (СВ) 10 км    10/0 средняя 
[Ac und]
-3.9 -10.3 61 -8  1036.4  0.4  764  313           
00 14.01.18 020 (С) 10 км  слаб. снег  10/0 средняя 
[Ac und]
-5.6 -7.6 86 -9  1035.8  -0.7  764  315           
03 14.01.18 360 (С) 10 км  слаб. снег  10/0 средняя 
[Ac und]
-5.8 -8.7 80 -9  1035.4  -0.4  763  315           
06 14.01.18 010 (С) 10 км  слаб. снег  10/0 средняя 
[Ac und]
-6.1 -9 80 -9  1035.6  0.2  763  316  -6.2    0.4     
09 14.01.18 010 (С) 20000 м  {ливн. осадки, снег}  8/3 600 м кучево-дожд., средняя 
[Cb calv|Ac As]
-5.4 -12.1 59 -9  1035.8  0.2  764  315           
12 14.01.18 010 (С) 20000 м  в посл. час ливневой снег  8/8 600 м кучево-дожд. 
[Cb calv]
-5.9 -10.5 70 -9  1035.1  -0.7  763  315           
15 14.01.18 360 (С) 20000 м  {ливн. осадки}  9/9 600 м кучево-дожд. 
[Cb calv]
-5.6 -10.9 66 -9  1034.7  -0.4  763  315           
18 14.01.18 360 (С) 10 км  {ливн. осадки}  10/10 600 м кучево-дожд. 
[Cb calv]
-5.9 -11.4 65 -8  1035.4  0.7  763  315    -4.8  0.0     
21 14.01.18 350 (С) 10 км    10/0 средняя 
[Ac As]
-6.7 -11.6 68 -9  1035.8  0.3  763  316           
00 15.01.18 330 (СЗ) 10 км    3/0 верхняя 
[Ci sp]
-9 -12 79 -11  1035.1  -0.8  763  319           
03 15.01.18 360 (С) 10 км  слаб. снег  4/0 средняя 
[As trans]
-8.5 -10.7 84 -10  1034.5  -0.6  762  318           
06 15.01.18 330 (СЗ) 20000 м  {снег}  6/0 средняя, верхняя 
[Ac As|Cs]
-9.8 -11.4 88 -12  1034.3  -0.2  762  320  -0.9    0.0     
09 15.01.18 010 (С) 20000 м    3/3 600 м 
[Sc]
-6.4 -11 70 -9  1034.2  0.1  762  316           
12 15.01.18 330 (СЗ) 20000 м    4/4 600 м 
[Sc]
-4.8 -10.8 63 -6  1031.8  -2.3  761  313           
15 15.01.18 330 (СЗ) 20000 м    8/4 600 м средняя 
[Sc|Ac trans]
-6.6 -11 71 -6  1031  -0.9  760  315           
18 15.01.18 320 (СЗ) 10 км    10/10 600 м 
[Sc]
-6.3 -10.5 72 -6  1030.1  -0.8  759  314    -4.5       
21 15.01.18 330 (СЗ) 10 км    8/8 600 м 
[Sc]
-8.1 -10.9 80 -8  1028.9  -1.3  758  316           
00 16.01.18 010 (С) 10 км    10/10 600 м 
[Sc]
-7.5 -9.9 83 -7  1026.4  -2.4  757  314           
03 16.01.18 050 (СВ) 10 км  гроза, пыльная буря  10/10 600 м 
[Sc]
-7.1 -9.5 83 -7  1023.6  -2.8  754  313           
06 16.01.18 360 (С) 4000 м  слаб. ливневой снег  10/10 600 м кучево-дожд. 
[Cb calv]
-7.2 -8 94 -9  1020.9  -2.6  752  312  -8.2       
09 16.01.18 340 (С) 4000 м  слаб. снег{ливн. осадки}  10/10 600 м 
[Ns]
-5.5 -6.6 92 -7  1018.3  -2.5  751  309           
12 16.01.18 330 (СЗ) 10 км  {ливн. осадки, снег}  10/0 средняя 
[As op]
-4.2 -6 87 -6  1014.6  -3.5  748  307           
15 16.01.18 350 (С) 10 км  {снег}  10/0 средняя 
[As op]
-4.4 -5.9 89 -6  1012.7  -1.9  747  306           
Время (UTC), дата Ветер
(°,м/с) 
Видим.   Явления Облачность Т
(°С)
Тd
(°С)
f(%) Тe
(°С)
Pmin
(гПа)
dP
(гПа)
Po
(мм)
O2
(г/м3)
Тmin Tmax R s Состояние
почвы

Для получения пояснительной информации подведите курсор к названию столбца.

ПОГОДА в Комрате - архив

Всё, что Вы хотите узнать о погоде в Комрате - удобно и подробно!

Выберите нужную дату (начиная с 1 января 2015* года) и нажмите кнопку "Найти".
Будут отображены архивные сводки погоды по пункту Комрат, начиная с указанной даты.


Отображать данные в формате CSV (для использования в таблицах Excel)


Внимание! Наш архив погоды предназначен исключительно для личного некоммерческого использования в познавательных целях. Если Вам необходимы официальные справки о состоянии погоды (для производственных, юридических, коммерческих и т.п. целей), обращайтесь в органы Росгидромета.

*Примечание: данная дата относится к архиву по метеостанциям СССР (Россия, СНГ, Балтия).
Архив по метеостанциям Зарубежной Европы и Азии (кроме Китая) хранится 10 дней, по другим регионам земного шара (Китай, Африка, Америка, Австралия, Океания) - 1 день.

Комрат - район местоположения метеостанции


Название, широта, долгота, высота метеостанции:
Комрат 46.3°ш. 28.6°д. 133 м над ур. моря [Молдавия]

Дополнительная информация

В oтличие oт бoльшинства пoгoдных сайтoв мы публикуем пoдрoбную метеoинфoрмацию в детальнoм прoфессиoнальнoм фoрмате.

Характеристики температуры и влажнoсти вoздуха измеряются на высoте 2 м в тени вдали oт зданий и деревьев.
Скoрoсть ветра измеряется на высoте 10 м (на урoвне рoста челoвека скoрoсть ветра ниже в 1.5-2 раза). Если метеoстанция нахoдится в гoрoде или в лесу, тo скoрoсть ветра занижена на 2-4 м/с пo сравнению с oткрытым местoм. Скoрoсть ветра над акватoриями крупных рек и oзёр, а также на вершинах хoлмoв на 2-5 м/с выше, чем в oбычных услoвиях.
Атмoсфернoе давление в разных тoчках местнoсти мoжет значительнo oтличаться oт давления на метеoстанции, в зависимoсти oт услoвий рельефа (при пoдъёме на 10 м давление пoнижается примернo на 1 мм рт.ст.).